Location: Elliott Corner
(37.4627°N, 119.7746°W)
Time: 23:39:33
(UTC+00:00)

Cosmos 1818 - Pass Details

Date: 10 September 2024
Orbit: 771 x 801 km, 65.0° (Epoch: 13 October)

Event Time Altitude Azimuth Distance (km) Brightness Sun altitude
Rises 12:28:37 0° 325° (NW) 3,312 6.6 -14.2°
Reaches altitude 10° 12:31:06 10° 321° (NW) 2,376 5.8 -13.7°
Maximum altitude 12:36:24 54° 245° (WSW) 964 3.7 -12.7°
Drops below altitude 10° 12:41:39 10° 169° (S) 2,347 6.0 -11.7°
Sets 12:44:06 0° 165° (SSE) 3,268 6.8 -11.2°
